Location: Dresden
(51.0483°N, 13.7137°E)
Time: 21:25:46
(UTC+01:00)

ISS - Pass Details

Date: 14 November 2017
Orbit: 402 x 407 km, 51.6° (Epoch: 24 November)

Event Time Altitude Azimuth Distance (km) Brightness Sun altitude
Exits shadow 04:12:34 14° 102° (ESE) 1,228 -0.7 -29.3°
Drops below altitude 10° 04:13:07 10° 102° (ESE) 1,455 -0.2 -29.2°
Sets 04:15:12 0° 102° (ESE) 2,313 1.1 -28.9°
